Weather History for Christchurch, New Zealand

Change the Weather History Date:

Sunday, December 15, 2013

  Actual Average Record
Temperature  
Mean Temperature 60 °F -  
Max Temperature 73 °F 67 °F 84 °F (1997)
Min Temperature 48 °F 49 °F 41 °F (1999)
Degree Days  
Heating Degree Days 4    
Growing Degree Days 10 (Base 50)    
Moisture  
Dew Point 56 °F    
Average Humidity 84    
Maximum Humidity 100    
Minimum Humidity 61    
Precipitation  
Precipitation 0.00 in - - ()
Sea Level Pressure  
Sea Level Pressure 29.93 in    
Wind  
Wind Speed 5 mph ()    
Max Wind Speed 15 mph    
Max Gust Speed 20 mph    
Visibility 5.5 miles    
Events      
Averages and records for this station are not official NWS values.
T = Trace of Precipitation, MM = Missing Value Source: Averaged Metar Reports

Daily Weather History Graph

Daily Weather History Graph

Search for Another Location

Airport:

Trip Planner

Search our weather history database for the weather conditions in past years. The results will help you decide how hot, cold, wet, or windy it might be!

Date:

Astronomy

Dec. 15, 2013 Rise Set
Actual Time 5:43 AM NZDT 9:06 PM NZDT
Civil Twilight 5:07 AM NZDT 9:42 PM NZDT
Nautical Twilight 4:20 AM NZDT 10:29 PM NZDT
Astronomical Twilight 3:22 AM NZDT 11:27 PM NZDT
Moon 6:58 PM NZDT (12/15) 4:08 AM NZDT (12/15)
Length of Visible Light 16h 35m
Length of Day
15h 23m
Waxing Gibbous, 95% of the Moon is Illuminated
Dec 15
Waxing Gibbous
Dec 17
Full
Dec 26
Last Quarter
Jan 2
New
Jan 8
First Quarter

Hourly Weather History & Observations

Time (NZDT) Temp. Dew Point Humidity Pressure Visibility Wind Dir Wind Speed Gust Speed Precip Events Conditions
12:00 AM 55.4 °F 55.4 °F 100% 29.95 in 6.2 mi NE 3.5 mph - N/A   Unknown
12:30 AM 55.4 °F 55.4 °F 100% 29.95 in 6.2 mi North 2.3 mph - N/A   Unknown
1:00 AM 55.4 °F 55.4 °F 100% 29.95 in 12.4 mi Calm Calm - N/A   Mist
1:30 AM 55.4 °F 55.4 °F 100% 29.95 in 1.2 mi Calm Calm - N/A   Mist
2:00 AM 50.0 °F 50.0 °F 100% 29.95 in - NW 1.2 mph - N/A   Mist
2:30 AM 50.0 °F 48.2 °F 94% 29.95 in 2.2 mi WNW 2.3 mph - N/A   Mist
3:00 AM 50.0 °F 50.0 °F 100% 29.92 in 1.2 mi NW 2.3 mph - N/A   Mist
3:30 AM 48.2 °F 48.2 °F 100% 29.92 in 0.9 mi WNW 1.2 mph - N/A   Mist
4:00 AM 50.0 °F 50.0 °F 100% 29.92 in 0.9 mi NNW 1.2 mph - N/A   Mist
4:30 AM 50.0 °F 50.0 °F 100% 29.92 in 1.2 mi East 1.2 mph - N/A   Mist
5:00 AM 50.0 °F 50.0 °F 100% 29.92 in 1.2 mi Calm Calm - N/A   Mist
5:30 AM 50.0 °F 50.0 °F 100% 29.92 in 1.2 mi South 1.2 mph - N/A   Mist
6:00 AM 48.2 °F 48.2 °F 100% 29.95 in 5.0 mi SW 4.6 mph - N/A   Unknown
6:30 AM 51.8 °F 51.8 °F 100% 29.95 in 6.2 mi SW 5.8 mph - N/A   Unknown
7:00 AM 57.2 °F 55.4 °F 94% 29.95 in 6.2 mi SW 11.5 mph - N/A   Mostly Cloudy
7:30 AM 59.0 °F 57.2 °F 94% 29.98 in 6.2 mi SW 6.9 mph - N/A   Mostly Cloudy
8:00 AM 60.8 °F 57.2 °F 88% 29.98 in 6.2 mi SSW 15.0 mph - N/A   Overcast
8:30 AM 62.6 °F 57.2 °F 82% 29.98 in 6.2 mi SSW 11.5 mph - N/A   Overcast
9:00 AM 64.4 °F 55.4 °F 73% 29.98 in 6.2 mi SSW 13.8 mph - N/A   Mostly Cloudy
9:30 AM 64.4 °F 57.2 °F 77% 29.98 in 6.2 mi SSW 12.7 mph - N/A   Partly Cloudy
10:00 AM 64.4 °F 57.2 °F 77% 30.01 in 6.2 mi SSW 11.5 mph - N/A   Mostly Cloudy
10:30 AM 64.4 °F 57.2 °F 77% 30.01 in 6.2 mi SSW 9.2 mph - N/A   Overcast
11:00 AM 64.4 °F 57.2 °F 77% 29.98 in 6.2 mi South 8.1 mph - N/A   Overcast
11:30 AM 66.2 °F 59.0 °F 78% 29.98 in 6.2 mi SSW 5.8 mph - N/A   Mostly Cloudy
12:00 PM 68.0 °F 57.2 °F 68% 29.98 in 6.2 mi SSW 9.2 mph - N/A   Partly Cloudy
12:30 PM 69.8 °F 57.2 °F 64% 29.98 in 6.2 mi SSW 11.5 mph - N/A   Scattered Clouds
1:00 PM 69.8 °F 59.0 °F 68% 29.95 in 6.2 mi SSW 8.1 mph - N/A   Unknown
1:30 PM 71.6 °F 59.0 °F 64% 29.95 in 6.2 mi SSW 8.1 mph - N/A   Unknown
2:00 PM 73.4 °F 59.0 °F 61% 29.95 in 6.2 mi South 8.1 mph - N/A   Unknown
2:30 PM 73.4 °F 59.0 °F 61% 29.95 in 6.2 mi South 8.1 mph 19.6 mph N/A   Partly Cloudy
3:00 PM 71.6 °F 59.0 °F 64% 29.92 in 6.2 mi South 10.4 mph - N/A   Scattered Clouds
3:30 PM 73.4 °F 59.0 °F 61% 29.92 in 6.2 mi SSW 9.2 mph - N/A   Mostly Cloudy
4:00 PM 71.6 °F 60.8 °F 69% 29.92 in 6.2 mi South 9.2 mph - N/A   Mostly Cloudy
4:30 PM 69.8 °F 59.0 °F 68% 29.92 in 6.2 mi SSE 6.9 mph - N/A   Overcast
5:00 PM 69.8 °F 60.8 °F 73% 29.92 in 6.2 mi SE 6.9 mph - N/A   Overcast
5:30 PM 68.0 °F 59.0 °F 73% 29.92 in 6.2 mi NNE 9.2 mph - N/A   Overcast
6:00 PM 66.2 °F 59.0 °F 78% 29.89 in 6.2 mi NE 9.2 mph - N/A   Mostly Cloudy
6:30 PM 66.2 °F 59.0 °F 78% 29.89 in 6.2 mi NE 10.4 mph - N/A   Overcast
7:00 PM 64.4 °F 59.0 °F 83% 29.89 in 6.2 mi NE 12.7 mph - N/A   Overcast
7:30 PM 62.6 °F 57.2 °F 82% 29.89 in 6.2 mi ENE 11.5 mph - N/A   Overcast
8:00 PM 62.6 °F 57.2 °F 82% 29.89 in 6.2 mi ENE 10.4 mph - N/A   Overcast
8:30 PM 62.6 °F 57.2 °F 82% 29.89 in 6.2 mi ENE 10.4 mph - N/A   Overcast
9:00 PM 62.6 °F 57.2 °F 82% 29.89 in 6.2 mi ENE 11.5 mph - N/A   Overcast
9:30 PM 60.8 °F 57.2 °F 88% 29.89 in 6.2 mi NE 12.7 mph - N/A   Overcast
10:00 PM 60.8 °F 57.2 °F 88% 29.89 in 6.2 mi NE 10.4 mph - N/A   Overcast
10:30 PM 60.8 °F 57.2 °F 88% 29.89 in 6.2 mi ENE 11.5 mph - N/A   Overcast
11:00 PM 59.0 °F 57.2 °F 94% 29.89 in 6.2 mi ENE 8.1 mph - N/A   Overcast
11:30 PM 60.8 °F 57.2 °F 88% 29.86 in 6.2 mi ENE 9.2 mph - N/A   Overcast